SCP
5 7 6 8 10 9 6 4 8 10 7 5 3 2 1 1 1 2 2 1 0 0 0 0 0 0 0 0 0 0 0 0 0 0 0 0 0 0 0 0 0 0 0
3 4 3 3 4 3 4 6 17 8 6 3 2 1 1 1 1 1 1 0 0 0 0 0 0 0 0 0 0 0 0 0 0 0 0 0 0 0 0 0 0 0 0
2 4 4 8 6 1 1 3 2 7 5 4 2 2 1 1 1 1 0 0 0 0 0 0 0 0 0 0 0 0 0 0 0 0 0 0 0 0 0 0 0 0 0
2 3 6 7 12 7 1 3 1 5 7 5 3 2 2 1 0 0 0 0 0 0 0 0 0 0 0 0 0 0 0 0 0 0 0 0 0 0 0 0 0 0 0
1 2 5 6 6 6 4 4 3 4 5 4 4 3 1 0 0 0 0 0 0 0 0 0 0 0 0 0 0 0 0 0 0 0 0 0 0 0 0 0 0 0 0
1 2 5 6 7 5 4 3 5 5 7 6 3 1 0 0 0 0 0 0 0 0 0 0 0 0 0 0 0 0 0 0 0 0 0 0 0 0 0 0 0 0 0
1 2 6 9 8 7 7 6 6 7 6 2 1 0 0 0 0 0 0 0 0 0 0 0 0 0 0 0 0 0 0 0 0 0 0 0 0 0 0 0 0 0 0
2 5 10 9 10 10 8 7 6 4 2 0 0 0 0 0 0 0 0 0 0 0 0 0 0 0 0 0 0 0 0 0 0 0 0 0 0 0 0 0 0 0 0
4 5 5 6 6 6 4 3 2 1 1 0 0 0 0 0 0 0 0 0 0 0 0 0 0 0 0 0 0 0 0 0 0 0 0 0 0 0 0 0 0 0 0
2 2 2 1 1 1 0 0 0 0 0 0 0 0 0 0 0 0 0 0 0 0 0 0 0 0 0 0 0 0 0 0 0 0 0 0 0 0 0 0 0 0 0
0 0 0 0 0 0 0 0 0 0 0 0 0 0 0 0 0 0 0 0 0 0 0 0 0 0 0 0 0 0 0 0 0 0 0 0 0 0 0 0 0 0 0
0 0 0 0 0 0 0 0 0 0 0 0 0 0 0 0 0 0 0 0 0 0 0 0 0 0 0 0 0 0 0 0 0 0 0 0 0 0 0 0 0 0 0
0 0 0 0 0 0 0 0 0 0 0 0 0 0 0 0 0 0 0 0 0 0 0 0 0 0 0 0 0 0 0 0 0 0 0 0 0 0 0 0 0 0 0
0 0 0 0 0 0 0 0 0 0 0 0 0 0 0 0 0 0 0 0 0 0 0 0 0 0 0 0 0 0 0 0 0 0 0 0 0 0 0 0 0 0 0
0 0 0 0 0 0 0 0 0 0 0 0 0 0 0 0 0 0 0 0 0 0 0 0 0 0 0 0 0 0 0 0 0 0 0 0 0 0 0 0 0 0 0
0 0 0 0 0 0 0 0 0 0 0 0 0 0 0 0 0 0 0 0 0 0 0 0 0 0 0 0 0 0 0 0 0 0 0 0 0 0 0 0 0 0 0
0 0 0 0 0 0 0 0 0 0 0 0 0 0 0 0 0 0 0 0 0 0 0 0 0 0 0 0 0 0 0 0 0 0 0 0 0 0 0 0 0 0 0
0 0 0 0 0 0 0 0 0 0 0 0 0 0 0 0 0 0 0 0 0 0 0 0 0 0 0 0 0 0 0 0 0 0 0 0 0 0 0 0 0 0 0
0 0 0 0 0 0 0 0 0 0 0 0 0 0 0 0 0 0 0 0 0 0 0 0 0 0 0 0 0 0 0 0 0 0 0 0 0 0 0 0 0 0 0
0 0 0 0 0 0 0 0 0 0 0 0 0 0 0 0 0 0 0 0 0 0 0 0 0 0 0 0 0 0 0 0 0 0 0 0 0 0 0 0 0 0 0
0 0 0 0 0 0 0 0 0 0 0 0 0 0 0 0 0 0 0 0 0 0 0 0 0 0 0 0 0 0 0 0 0 0 0 0 0 0 0 0 0 0 0
0 0 0 0 0 0 0 0 0 0 0 0 0 0 0 0 0 0 0 0 0 0 0 0 0 0 0 0 0 0 0 0 0 0 0 0 0 0 0 0 0 0 0
-0 -0 -0 -0 -0 0 0 0 0 0 0 0 0 0 0 0 0 0 0 0 0 0 0 0 0 0 0 0 0 0 0 0 0 0 0 0 0 0 0 0 0 0 0
0 0 0 0 0 0 0 0 0 0 0 0 0 0 0 0 0 0 0 0 0 0 0 0 0 0 0 0 0 0 0 0 0 0 0 0 0 0 0 0 0 0 0
0 0 0 0 0 0 0 0 0 0 0 0 0 0 0 0 0 0 0 0 0 0 0 0 0 0 0 0 0 0 0 0 0 0 0 0 0 0 0 0 0 0 0
0 0 0 0 0 0 0 0 0 0 0 0 0 0 0 0 0 0 0 0 0 0 0 0 0 0 0 0 0 0 0 0 0 0 0 0 0 0 0 0 0 0 0
Wind_Speed_500mb
80 92 95 85 87 89 97 88 69 77 70 69 65 66 60 50 45 49 38 41 37 33 29 25 23 18 13 12 13 12 11 15 21 22 20 25 29 27 28 28 26 30 28
70 74 91 79 60 60 61 70 87 71 73 64 60 61 57 51 51 53 45 38 39 35 28 21 19 19 18 19 9 19 13 15 16 20 21 20 23 30 29 30 28 28 29
68 63 72 92 118 112 79 47 58 82 73 63 61 58 53 48 53 47 44 40 37 29 21 19 21 16 14 14 12 11 8 10 12 16 17 19 23 23 35 27 32 31 29
67 62 57 66 80 90 93 86 106 80 76 67 61 55 54 45 45 44 41 38 32 25 23 21 15 11 10 9 6 10 13 9 11 16 16 19 20 26 29 29 32 29 31
69 62 61 70 76 81 90 88 66 72 73 65 63 56 50 47 46 43 42 38 32 24 20 16 21 15 16 12 8 10 5 6 8 11 14 19 23 29 30 30 27 29 23
66 69 65 67 81 84 86 81 82 77 75 70 59 55 56 42 47 49 41 32 26 22 20 17 9 14 10 8 9 9 5 4 7 10 13 19 23 26 26 23 25 24 23
58 65 66 69 76 79 83 88 91 92 79 68 61 57 55 54 53 44 35 30 23 19 15 9 8 6 9 5 2 5 5 10 11 13 14 16 20 21 23 19 21 20 22
50 56 69 76 80 84 94 96 93 84 77 71 62 63 60 57 53 44 38 29 25 21 17 15 20 17 9 8 9 3 6 10 15 15 12 13 12 16 24 18 31 35 26
62 69 76 77 88 86 97 91 82 78 70 65 59 59 61 63 51 43 37 30 27 22 25 20 12 11 7 8 7 3 5 5 11 8 13 18 16 22 28 19 18 24 22
61 76 82 90 92 93 96 88 79 75 71 60 58 58 63 63 53 47 32 26 27 21 18 21 14 7 9 9 8 5 2 2 8 8 22 27 33 36 39 36 25 19 22
62 76 81 85 93 95 93 87 86 75 68 62 62 60 58 55 52 48 40 25 20 18 12 9 11 9 8 8 4 4 4 5 12 18 10 11 15 20 23 23 29 23 21
65 69 76 88 91 90 94 88 84 84 79 68 66 59 52 54 47 40 39 35 31 21 19 16 12 10 8 7 10 14 18 18 18 4 6 10 12 15 19 20 23 27 29
64 72 83 89 89 92 96 94 85 77 65 60 54 52 49 52 47 43 41 35 38 30 27 17 17 18 20 22 19 17 20 10 6 6 9 10 14 18 21 21 21 22 25
83 86 87 93 93 90 83 78 72 63 53 49 48 46 43 45 46 42 35 39 39 21 24 21 21 21 23 16 22 16 11 12 11 10 11 13 14 17 18 22 22 22 21
87 91 87 88 87 85 78 62 56 46 45 48 45 44 46 42 36 40 39 41 28 27 32 24 20 18 14 14 14 12 13 12 12 13 14 15 17 20 20 23 23 22 22
85 85 85 88 85 85 79 76 59 55 52 50 49 44 46 39 47 45 41 40 33 43 28 19 18 18 14 15 11 11 12 14 14 14 16 17 18 20 23 23 25 26 26
77 78 83 83 81 80 80 79 78 61 58 49 43 42 33 39 40 41 38 40 45 40 25 21 19 17 15 14 11 11 11 12 14 15 16 18 19 20 24 25 27 30 29
72 71 73 65 65 68 68 68 67 66 62 45 38 36 37 41 42 43 48 45 35 28 21 21 19 17 14 14 12 11 11 12 14 15 16 18 20 21 24 26 29 34 34
59 62 68 65 63 64 62 62 61 57 57 57 53 47 45 47 51 48 40 28 24 23 22 20 18 17 15 13 14 13 13 15 15 15 16 18 20 21 23 25 27 31 35
51 53 57 60 58 53 53 57 56 55 58 55 52 52 49 49 37 25 24 25 25 23 21 19 18 18 16 14 14 12 12 12 14 16 17 19 21 22 24 25 27 29 33
43 41 39 47 49 49 49 47 50 49 44 38 36 44 36 25 26 26 25 25 24 24 22 20 19 17 15 15 14 12 12 11 14 15 17 20 20 22 23 24 27 28 30
24 29 30 32 34 33 40 45 46 42 42 41 35 41 37 30 27 26 26 25 24 22 22 20 18 16 15 15 14 12 13 13 14 16 17 19 20 21 23 24 27 29 31
22 21 24 26 29 29 36 36 35 34 41 39 43 38 27 28 27 26 26 25 23 22 21 20 19 17 15 14 10 12 10 11 12 15 17 17 19 21 22 24 26 30 31
24 27 24 26 37 35 35 37 36 34 34 38 34 31 29 29 28 25 24 23 23 22 20 20 21 18 17 14 9 10 10 8 10 13 19 16 18 21 21 24 25 28 30
19 21 27 28 32 35 38 36 35 34 35 35 32 30 29 27 27 25 24 23 23 21 20 19 17 14 13 11 12 12 11 12 13 11 22 16 17 21 21 21 25 24 28
20 20 23 27 28 36 33 34 34 33 33 31 30 29 28 27 26 24 24 22 21 20 19 18 19 16 12 12 11 11 11 12 14 17 24 16 17 18 20 21 26 24 27
Wind_Direction_500mb
210 210 207 208 188 190 196 182 177 180 194 194 191 194 193 196 199 187 185 197 201 212 225 233 240 255 261 281 293 299 307 301 292 299 319 308 336 336 341 336 348 342 326
213 208 213 221 219 195 184 174 184 188 196 188 181 183 184 188 193 195 199 197 205 211 222 236 240 253 276 288 298 297 308 316 304 317 324 340 335 341 331 343 329 328 315
211 209 211 206 216 240 236 227 201 187 188 175 177 176 175 181 193 196 193 199 199 209 218 226 242 264 273 258 296 297 305 310 316 317 335 335 333 325 330 337 325 328 322
207 203 197 195 196 202 206 210 197 178 173 173 171 171 177 179 187 188 193 193 198 206 214 226 230 244 245 275 317 350 314 347 323 335 331 329 336 324 336 333 330 330 327
203 202 191 188 185 188 183 193 187 169 167 167 167 171 175 178 183 185 189 194 203 202 211 210 238 254 263 272 188 244 300 352 357 343 343 334 332 331 336 328 330 336 351
207 197 190 183 183 183 183 175 175 170 166 166 166 169 173 166 182 184 191 194 192 198 196 230 251 270 270 267 245 251 285 338 347 7 356 333 329 331 326 333 342 348 348
207 197 182 185 182 175 172 173 171 168 165 163 162 167 162 180 179 187 191 188 181 179 177 169 127 236 72 327 32 39 -0 351 354 349 345 335 328 320 330 345 338 353 342
199 186 182 182 178 170 173 169 168 173 170 168 162 171 176 173 176 184 187 174 171 163 165 161 200 243 216 189 114 83 31 356 343 11 14 358 351 3 5 24 8 353 355
189 190 192 190 178 175 175 169 174 170 161 156 163 167 170 167 178 183 185 170 167 154 186 180 191 244 202 162 113 68 58 341 2 33 44 40 26 11 11 15 3 353 351
184 190 189 184 183 175 177 173 167 157 155 151 156 158 163 163 167 172 150 157 157 176 191 196 236 246 172 162 137 99 101 247 29 11 359 8 11 2 359 4 352 348 344
177 174 173 177 177 173 172 169 160 151 148 146 149 150 156 164 164 163 147 147 153 139 134 152 192 175 168 171 186 154 147 139 60 21 351 358 5 359 347 338 332 341 336
168 167 168 167 170 167 163 152 149 150 152 151 148 144 152 160 164 167 159 160 149 143 145 186 158 162 146 120 105 112 104 75 48 -0 -0 355 354 344 332 334 331 331 338
165 161 158 160 158 156 155 152 151 156 149 140 142 145 150 162 167 168 169 167 149 148 177 154 144 130 110 87 91 98 59 59 43 23 16 -0 3 352 9 347 355 337 343
154 150 143 145 141 147 150 148 144 138 141 144 142 142 148 156 165 172 173 172 176 170 150 133 123 111 104 99 61 54 48 59 64 39 26 13 14 8 12 7 3 356 350
146 146 144 141 147 143 135 135 134 140 147 144 145 148 149 147 158 159 164 158 148 143 124 107 91 105 107 100 87 71 68 54 43 34 33 23 20 12 16 13 9 6 4
134 143 147 146 143 143 141 137 135 138 141 141 137 150 153 166 152 148 145 161 160 126 123 138 131 120 120 106 101 82 66 50 45 38 32 27 25 12 23 16 13 12 10
139 142 146 145 146 145 143 143 139 138 134 140 149 153 161 158 158 160 159 148 133 120 131 134 127 123 115 110 101 88 69 56 46 43 34 27 22 19 24 17 13 12 13
132 137 138 138 140 139 137 139 137 136 137 133 138 149 147 145 143 140 137 128 115 121 136 129 123 119 113 111 103 88 65 61 48 38 32 30 24 21 22 18 12 10 10
125 124 128 128 131 131 135 133 133 136 137 137 134 133 130 129 126 126 121 122 134 130 128 121 118 112 108 101 92 78 75 53 52 47 34 27 26 25 22 20 15 11 11
107 115 121 120 125 127 127 134 130 134 133 133 134 131 128 129 119 116 122 137 131 127 121 121 116 107 103 94 85 82 69 61 45 36 33 28 27 22 22 18 16 16 8
107 108 116 118 123 127 123 120 123 129 123 123 131 127 120 137 143 140 134 131 130 123 123 118 106 103 95 89 84 75 71 60 55 45 34 28 26 24 20 17 17 14 6
121 127 130 129 126 128 130 128 126 129 134 136 149 150 143 147 144 141 136 129 123 125 119 113 112 109 102 98 92 81 74 59 47 47 36 31 20 29 21 17 17 13 11
109 122 116 115 124 121 119 126 138 139 144 152 145 141 140 140 142 141 133 127 124 121 116 112 109 101 96 95 109 118 118 105 53 54 37 32 19 33 22 19 16 13 12
126 127 131 139 138 136 140 142 145 146 145 144 143 147 149 145 143 138 129 126 124 120 117 119 122 112 99 90 85 113 102 82 95 99 69 32 22 29 26 17 17 11 11
134 134 139 143 143 147 147 145 146 149 148 149 152 149 147 142 134 134 132 128 124 121 116 113 109 115 129 122 110 106 97 86 85 82 94 35 27 27 29 16 18 12 15
150 147 144 149 146 145 146 147 148 150 150 151 149 147 144 142 140 138 134 130 128 128 128 124 119 114 124 120 111 101 92 86 81 80 67 39 35 15 31 19 15 15 13
Wind_Speed_850mb
80 92 95 85 87 89 97 88 69 77 70 69 65 66 60 50 45 49 38 41 37 33 29 25 23 18 13 12 13 12 11 15 21 22 20 25 29 27 28 28 26 30 28
70 74 91 79 60 60 61 70 87 71 73 64 60 61 57 51 51 53 45 38 39 35 28 21 19 19 18 19 9 19 13 15 16 20 21 20 23 30 29 30 28 28 29
68 63 72 92 118 112 79 47 58 82 73 63 61 58 53 48 53 47 44 40 37 29 21 19 21 16 14 14 12 11 8 10 12 16 17 19 23 23 35 27 32 31 29
67 62 57 66 80 90 93 86 106 80 76 67 61 55 54 45 45 44 41 38 32 25 23 21 15 11 10 9 6 10 13 9 11 16 16 19 20 26 29 29 32 29 31
69 62 61 70 76 81 90 88 66 72 73 65 63 56 50 47 46 43 42 38 32 24 20 16 21 15 16 12 8 10 5 6 8 11 14 19 23 29 30 30 27 29 23
66 69 65 67 81 84 86 81 82 77 75 70 59 55 56 42 47 49 41 32 26 22 20 17 9 14 10 8 9 9 5 4 7 10 13 19 23 26 26 23 25 24 23
58 65 66 69 76 79 83 88 91 92 79 68 61 57 55 54 53 44 35 30 23 19 15 9 8 6 9 5 2 5 5 10 11 13 14 16 20 21 23 19 21 20 22
50 56 69 76 80 84 94 96 93 84 77 71 62 63 60 57 53 44 38 29 25 21 17 15 20 17 9 8 9 3 6 10 15 15 12 13 12 16 24 18 31 35 26
62 69 76 77 88 86 97 91 82 78 70 65 59 59 61 63 51 43 37 30 27 22 25 20 12 11 7 8 7 3 5 5 11 8 13 18 16 22 28 19 18 24 22
61 76 82 90 92 93 96 88 79 75 71 60 58 58 63 63 53 47 32 26 27 21 18 21 14 7 9 9 8 5 2 2 8 8 22 27 33 36 39 36 25 19 22
62 76 81 85 93 95 93 87 86 75 68 62 62 60 58 55 52 48 40 25 20 18 12 9 11 9 8 8 4 4 4 5 12 18 10 11 15 20 23 23 29 23 21
65 69 76 88 91 90 94 88 84 84 79 68 66 59 52 54 47 40 39 35 31 21 19 16 12 10 8 7 10 14 18 18 18 4 6 10 12 15 19 20 23 27 29
64 72 83 89 89 92 96 94 85 77 65 60 54 52 49 52 47 43 41 35 38 30 27 17 17 18 20 22 19 17 20 10 6 6 9 10 14 18 21 21 21 22 25
83 86 87 93 93 90 83 78 72 63 53 49 48 46 43 45 46 42 35 39 39 21 24 21 21 21 23 16 22 16 11 12 11 10 11 13 14 17 18 22 22 22 21
87 91 87 88 87 85 78 62 56 46 45 48 45 44 46 42 36 40 39 41 28 27 32 24 20 18 14 14 14 12 13 12 12 13 14 15 17 20 20 23 23 22 22
85 85 85 88 85 85 79 76 59 55 52 50 49 44 46 39 47 45 41 40 33 43 28 19 18 18 14 15 11 11 12 14 14 14 16 17 18 20 23 23 25 26 26
77 78 83 83 81 80 80 79 78 61 58 49 43 42 33 39 40 41 38 40 45 40 25 21 19 17 15 14 11 11 11 12 14 15 16 18 19 20 24 25 27 30 29
72 71 73 65 65 68 68 68 67 66 62 45 38 36 37 41 42 43 48 45 35 28 21 21 19 17 14 14 12 11 11 12 14 15 16 18 20 21 24 26 29 34 34
59 62 68 65 63 64 62 62 61 57 57 57 53 47 45 47 51 48 40 28 24 23 22 20 18 17 15 13 14 13 13 15 15 15 16 18 20 21 23 25 27 31 35
51 53 57 60 58 53 53 57 56 55 58 55 52 52 49 49 37 25 24 25 25 23 21 19 18 18 16 14 14 12 12 12 14 16 17 19 21 22 24 25 27 29 33
43 41 39 47 49 49 49 47 50 49 44 38 36 44 36 25 26 26 25 25 24 24 22 20 19 17 15 15 14 12 12 11 14 15 17 20 20 22 23 24 27 28 30
24 29 30 32 34 33 40 45 46 42 42 41 35 41 37 30 27 26 26 25 24 22 22 20 18 16 15 15 14 12 13 13 14 16 17 19 20 21 23 24 27 29 31
22 21 24 26 29 29 36 36 35 34 41 39 43 38 27 28 27 26 26 25 23 22 21 20 19 17 15 14 10 12 10 11 12 15 17 17 19 21 22 24 26 30 31
24 27 24 26 37 35 35 37 36 34 34 38 34 31 29 29 28 25 24 23 23 22 20 20 21 18 17 14 9 10 10 8 10 13 19 16 18 21 21 24 25 28 30
19 21 27 28 32 35 38 36 35 34 35 35 32 30 29 27 27 25 24 23 23 21 20 19 17 14 13 11 12 12 11 12 13 11 22 16 17 21 21 21 25 24 28
20 20 23 27 28 36 33 34 34 33 33 31 30 29 28 27 26 24 24 22 21 20 19 18 19 16 12 12 11 11 11 12 14 17 24 16 17 18 20 21 26 24 27
Wind_Direction_850mb
210 210 207 208 188 190 196 182 177 180 194 194 191 194 193 196 199 187 185 197 201 212 225 233 240 255 261 281 293 299 307 301 292 299 319 308 336 336 341 336 348 342 326
213 208 213 221 219 195 184 174 184 188 196 188 181 183 184 188 193 195 199 197 205 211 222 236 240 253 276 288 298 297 308 316 304 317 324 340 335 341 331 343 329 328 315
211 209 211 206 216 240 236 227 201 187 188 175 177 176 175 181 193 196 193 199 199 209 218 226 242 264 273 258 296 297 305 310 316 317 335 335 333 325 330 337 325 328 322
207 203 197 195 196 202 206 210 197 178 173 173 171 171 177 179 187 188 193 193 198 206 214 226 230 244 245 275 317 350 314 347 323 335 331 329 336 324 336 333 330 330 327
203 202 191 188 185 188 183 193 187 169 167 167 167 171 175 178 183 185 189 194 203 202 211 210 238 254 263 272 188 244 300 352 357 343 343 334 332 331 336 328 330 336 351
207 197 190 183 183 183 183 175 175 170 166 166 166 169 173 166 182 184 191 194 192 198 196 230 251 270 270 267 245 251 285 338 347 7 356 333 329 331 326 333 342 348 348
207 197 182 185 182 175 172 173 171 168 165 163 162 167 162 180 179 187 191 188 181 179 177 169 127 236 72 327 32 39 -0 351 354 349 345 335 328 320 330 345 338 353 342
199 186 182 182 178 170 173 169 168 173 170 168 162 171 176 173 176 184 187 174 171 163 165 161 200 243 216 189 114 83 31 356 343 11 14 358 351 3 5 24 8 353 355
189 190 192 190 178 175 175 169 174 170 161 156 163 167 170 167 178 183 185 170 167 154 186 180 191 244 202 162 113 68 58 341 2 33 44 40 26 11 11 15 3 353 351
184 190 189 184 183 175 177 173 167 157 155 151 156 158 163 163 167 172 150 157 157 176 191 196 236 246 172 162 137 99 101 247 29 11 359 8 11 2 359 4 352 348 344
177 174 173 177 177 173 172 169 160 151 148 146 149 150 156 164 164 163 147 147 153 139 134 152 192 175 168 171 186 154 147 139 60 21 351 358 5 359 347 338 332 341 336
168 167 168 167 170 167 163 152 149 150 152 151 148 144 152 160 164 167 159 160 149 143 145 186 158 162 146 120 105 112 104 75 48 -0 -0 355 354 344 332 334 331 331 338
165 161 158 160 158 156 155 152 151 156 149 140 142 145 150 162 167 168 169 167 149 148 177 154 144 130 110 87 91 98 59 59 43 23 16 -0 3 352 9 347 355 337 343
154 150 143 145 141 147 150 148 144 138 141 144 142 142 148 156 165 172 173 172 176 170 150 133 123 111 104 99 61 54 48 59 64 39 26 13 14 8 12 7 3 356 350
146 146 144 141 147 143 135 135 134 140 147 144 145 148 149 147 158 159 164 158 148 143 124 107 91 105 107 100 87 71 68 54 43 34 33 23 20 12 16 13 9 6 4
134 143 147 146 143 143 141 137 135 138 141 141 137 150 153 166 152 148 145 161 160 126 123 138 131 120 120 106 101 82 66 50 45 38 32 27 25 12 23 16 13 12 10
139 142 146 145 146 145 143 143 139 138 134 140 149 153 161 158 158 160 159 148 133 120 131 134 127 123 115 110 101 88 69 56 46 43 34 27 22 19 24 17 13 12 13
132 137 138 138 140 139 137 139 137 136 137 133 138 149 147 145 143 140 137 128 115 121 136 129 123 119 113 111 103 88 65 61 48 38 32 30 24 21 22 18 12 10 10
125 124 128 128 131 131 135 133 133 136 137 137 134 133 130 129 126 126 121 122 134 130 128 121 118 112 108 101 92 78 75 53 52 47 34 27 26 25 22 20 15 11 11
107 115 121 120 125 127 127 134 130 134 133 133 134 131 128 129 119 116 122 137 131 127 121 121 116 107 103 94 85 82 69 61 45 36 33 28 27 22 22 18 16 16 8
107 108 116 118 123 127 123 120 123 129 123 123 131 127 120 137 143 140 134 131 130 123 123 118 106 103 95 89 84 75 71 60 55 45 34 28 26 24 20 17 17 14 6
121 127 130 129 126 128 130 128 126 129 134 136 149 150 143 147 144 141 136 129 123 125 119 113 112 109 102 98 92 81 74 59 47 47 36 31 20 29 21 17 17 13 11
109 122 116 115 124 121 119 126 138 139 144 152 145 141 140 140 142 141 133 127 124 121 116 112 109 101 96 95 109 118 118 105 53 54 37 32 19 33 22 19 16 13 12
126 127 131 139 138 136 140 142 145 146 145 144 143 147 149 145 143 138 129 126 124 120 117 119 122 112 99 90 85 113 102 82 95 99 69 32 22 29 26 17 17 11 11
134 134 139 143 143 147 147 145 146 149 148 149 152 149 147 142 134 134 132 128 124 121 116 113 109 115 129 122 110 106 97 86 85 82 94 35 27 27 29 16 18 12 15
150 147 144 149 146 145 146 147 148 150 150 151 149 147 144 142 140 138 134 130 128 128 128 124 119 114 124 120 111 101 92 86 81 80 67 39 35 15 31 19 15 15 13